Time,TemperatureF,DewpointF,PressureIn,WindDirection,WindDirectionDegrees,WindSpeedMPH,WindSpeedGustMPH,Humidity,HourlyPrecipIn,Conditions,Clouds,dailyrainin,SoftwareType,DateUTC
2013-04-16 00:00:00,60.9,48.0,30.06,ESE,116,4.0,-999.0,62,-99.99,,,0.00,weatherlink.com 1.10,2013-04-16 04:00:00,
2013-04-16 00:15:00,60.5,47.0,30.06,East,90,9.0,-999.0,62,-99.99,,,0.00,weatherlink.com 1.10,2013-04-16 04:15:00,
2013-04-16 00:30:00,60.3,47.0,30.06,ESE,111,5.0,-999.0,63,-99.99,,,0.00,weatherlink.com 1.10,2013-04-16 04:30:00,
2013-04-16 00:45:00,59.9,48.0,30.06,ESE,102,5.0,-999.0,64,-99.99,,,0.00,weatherlink.com 1.10,2013-04-16 04:45:00,
2013-04-16 01:00:00,60.2,48.0,30.06,SE,142,6.0,-999.0,64,-99.99,,,0.00,weatherlink.com 1.10,2013-04-16 05:00:00,
2013-04-16 01:15:00,60.1,48.0,30.05,ESE,119,5.0,-999.0,64,-99.99,,,0.00,weatherlink.com 1.10,2013-04-16 05:15:00,
2013-04-16 01:30:00,60.1,48.0,30.05,East,82,2.0,-999.0,64,-99.99,,,0.00,weatherlink.com 1.10,2013-04-16 05:30:00,
2013-04-16 01:45:00,60.0,48.0,30.05,ESE,113,8.0,-999.0,64,-99.99,,,0.00,weatherlink.com 1.10,2013-04-16 05:45:00,
2013-04-16 02:00:00,60.1,48.0,30.04,East,82,3.0,-999.0,65,-99.99,,,0.00,weatherlink.com 1.10,2013-04-16 06:00:00,
2013-04-16 02:15:00,60.0,48.0,30.05,SSE,153,5.0,-999.0,65,-99.99,,,0.00,weatherlink.com 1.10,2013-04-16 06:15:00,
2013-04-16 02:30:00,60.2,48.0,30.04,East,92,4.0,-999.0,65,-99.99,,,0.00,weatherlink.com 1.10,2013-04-16 06:30:00,
2013-04-16 02:45:00,60.3,48.0,30.04,East,98,7.0,-999.0,65,-99.99,,,0.00,weatherlink.com 1.10,2013-04-16 06:45:00,
2013-04-16 03:00:00,60.3,48.0,30.03,East,79,5.0,-999.0,65,-99.99,,,0.00,weatherlink.com 1.10,2013-04-16 07:00:00,
2013-04-16 03:15:00,60.3,49.0,30.03,NE,43,9.0,-999.0,66,-99.99,,,0.00,weatherlink.com 1.10,2013-04-16 07:15:00,
2013-04-16 03:30:00,60.3,49.0,30.03,SSE,159,2.0,-999.0,66,-99.99,,,0.00,weatherlink.com 1.10,2013-04-16 07:30:00,
2013-04-16 03:45:00,60.0,49.0,30.02,ESE,104,4.0,-999.0,67,-99.99,,,0.00,weatherlink.com 1.10,2013-04-16 07:45:00,
2013-04-16 04:00:00,59.9,49.0,30.02,East,88,4.0,-999.0,68,-99.99,,,0.00,weatherlink.com 1.10,2013-04-16 08:00:00,
2013-04-16 04:15:00,59.9,49.0,30.02,East,93,15.0,-999.0,68,-99.99,,,0.00,weatherlink.com 1.10,2013-04-16 08:15:00,
2013-04-16 04:30:00,60.0,49.0,30.02,ESE,109,5.0,-999.0,68,-99.99,,,0.00,weatherlink.com 1.10,2013-04-16 08:30:00,
2013-04-16 04:45:00,60.0,50.0,30.01,SSE,155,5.0,-999.0,69,-99.99,,,0.00,weatherlink.com 1.10,2013-04-16 08:45:00,
2013-04-16 05:00:00,60.2,50.0,30.00,East,92,6.0,-999.0,68,-99.99,,,0.00,weatherlink.com 1.10,2013-04-16 09:00:00,
2013-04-16 05:15:00,60.2,50.0,30.00,ESE,106,9.0,-999.0,69,-99.99,,,0.00,weatherlink.com 1.10,2013-04-16 09:15:00,
2013-04-16 05:30:00,60.3,50.0,30.00,ESE,121,5.0,-999.0,69,-99.99,,,0.00,weatherlink.com 1.10,2013-04-16 09:30:00,
2013-04-16 05:45:00,60.3,50.0,30.00,ESE,111,2.0,-999.0,69,-99.99,,,0.00,weatherlink.com 1.10,2013-04-16 09:45:00,
2013-04-16 06:00:00,60.3,50.0,30.00,East,91,6.0,-999.0,69,-99.99,,,0.00,weatherlink.com 1.10,2013-04-16 10:00:00,
2013-04-16 06:15:00,60.3,50.0,30.01,ESE,113,1.0,-999.0,69,-99.99,,,0.00,weatherlink.com 1.10,2013-04-16 10:15:00,
2013-04-16 06:30:00,60.2,50.0,30.01,ESE,107,6.0,-999.0,69,-99.99,,,0.00,weatherlink.com 1.10,2013-04-16 10:30:00,
2013-04-16 06:45:00,60.2,50.0,30.00,East,92,8.0,-999.0,69,-99.99,,,0.00,weatherlink.com 1.10,2013-04-16 10:45:00,
2013-04-16 07:00:00,60.2,50.0,30.00,East,98,5.0,-999.0,70,-99.99,,,0.00,weatherlink.com 1.10,2013-04-16 11:00:00,
2013-04-16 07:15:00,60.4,51.0,30.00,East,86,5.0,-999.0,70,-99.99,,,0.00,weatherlink.com 1.10,2013-04-16 11:15:00,
2013-04-16 07:30:00,60.5,51.0,30.00,SSE,153,4.0,-999.0,70,-99.99,,,0.00,weatherlink.com 1.10,2013-04-16 11:30:00,
2013-04-16 07:45:00,60.8,51.0,30.00,East,98,9.0,-999.0,70,-99.99,,,0.00,weatherlink.com 1.10,2013-04-16 11:45:00,
2013-04-16 08:01:00,61.1,51.0,29.99,SE,141,2.0,-999.0,69,-99.99,,,0.00,weatherlink.com 1.10,2013-04-16 12:01:00,
2013-04-16 08:16:00,61.3,51.0,29.99,East,100,5.0,-999.0,69,-99.99,,,0.00,weatherlink.com 1.10,2013-04-16 12:16:00,
2013-04-16 08:31:00,62.2,51.0,29.98,South,169,5.0,-999.0,68,-99.99,,,0.00,weatherlink.com 1.10,2013-04-16 12:31:00,
2013-04-16 08:46:00,62.9,52.0,29.98,ESE,111,9.0,-999.0,67,-99.99,,,0.00,weatherlink.com 1.10,2013-04-16 12:46:00,
2013-04-16 09:01:00,63.1,52.0,29.98,SSE,157,2.0,-999.0,67,-99.99,,,0.00,weatherlink.com 1.10,2013-04-16 13:01:00,
2013-04-16 09:16:00,63.5,52.0,29.98,SSE,157,4.0,-999.0,67,-99.99,,,0.00,weatherlink.com 1.10,2013-04-16 13:16:00,
2013-04-16 09:31:00,63.7,52.0,29.97,SE,142,5.0,-999.0,67,-99.99,,,0.00,weatherlink.com 1.10,2013-04-16 13:31:00,
2013-04-16 10:01:00,64.4,53.0,29.97,SSE,155,1.0,-999.0,66,-99.99,,,0.00,weatherlink.com 1.10,2013-04-16 14:01:00,
2013-04-16 10:16:00,64.9,53.0,29.97,SSW,197,10.0,-999.0,65,-99.99,,,0.00,weatherlink.com 1.10,2013-04-16 14:16:00,
2013-04-16 10:31:00,65.7,53.0,29.97,SSE,151,5.0,-999.0,64,-99.99,,,0.00,weatherlink.com 1.10,2013-04-16 14:31:00,
2013-04-16 10:46:00,65.6,53.0,29.97,SE,144,9.0,-999.0,64,-99.99,,,0.00,weatherlink.com 1.10,2013-04-16 14:46:00,
2013-04-16 11:01:00,65.6,53.0,29.99,SSW,201,7.0,-999.0,64,-99.99,,,0.00,weatherlink.com 1.10,2013-04-16 15:01:00,
2013-04-16 11:16:00,65.1,53.0,29.99,SE,136,5.0,-999.0,65,-99.99,,,0.00,weatherlink.com 1.10,2013-04-16 15:16:00,
2013-04-16 11:31:00,64.7,53.0,29.99,ESE,108,5.0,-999.0,67,-99.99,,,0.00,weatherlink.com 1.10,2013-04-16 15:31:00,
2013-04-16 11:46:00,63.0,55.0,30.00,SSE,159,7.0,-999.0,75,-99.99,,,0.00,weatherlink.com 1.10,2013-04-16 15:46:00,
2013-04-16 12:01:00,60.2,55.0,29.99,South,186,6.0,-999.0,84,-99.99,,,0.02,weatherlink.com 1.10,2013-04-16 16:01:00,
2013-04-16 12:31:00,60.2,56.0,29.96,SE,144,2.0,-999.0,85,-99.99,,,0.02,weatherlink.com 1.10,2013-04-16 16:31:00,
2013-04-16 12:46:00,60.9,56.0,29.98,SSE,167,1.0,-999.0,84,-99.99,,,0.03,weatherlink.com 1.10,2013-04-16 16:46:00,
2013-04-16 13:01:00,61.4,57.0,29.98,South,173,0.0,-999.0,84,-99.99,,,0.03,weatherlink.com 1.10,2013-04-16 17:01:00,
2013-04-16 13:16:00,61.4,57.0,29.98,SSE,157,2.0,-999.0,85,-99.99,,,0.04,weatherlink.com 1.10,2013-04-16 17:16:00,
2013-04-16 13:46:00,61.2,57.0,29.98,SSW,208,7.0,-999.0,86,-99.99,,,0.04,weatherlink.com 1.10,2013-04-16 17:46:00,
2013-04-16 14:01:00,62.1,57.0,29.98,SSE,155,5.0,-999.0,84,-99.99,,,0.04,weatherlink.com 1.10,2013-04-16 18:01:00,
2013-04-16 14:16:00,62.5,57.0,29.97,SE,138,1.0,-999.0,83,-99.99,,,0.04,weatherlink.com 1.10,2013-04-16 18:16:00,
2013-04-16 14:31:00,62.9,58.0,29.97,SSE,166,2.0,-999.0,83,-99.99,,,0.04,weatherlink.com 1.10,2013-04-16 18:31:00,
2013-04-16 14:46:00,63.2,58.0,29.97,South,175,0.0,-999.0,82,-99.99,,,0.04,weatherlink.com 1.10,2013-04-16 18:46:00,
2013-04-16 15:01:00,63.1,58.0,29.97,South,175,0.0,-999.0,83,-99.99,,,0.04,weatherlink.com 1.10,2013-04-16 19:01:00,
2013-04-16 15:16:00,62.9,58.0,29.96,South,175,0.0,-999.0,85,-99.99,,,0.04,weatherlink.com 1.10,2013-04-16 19:16:00,
2013-04-16 15:31:00,62.9,59.0,29.96,South,175,1.0,-999.0,86,-99.99,,,0.04,weatherlink.com 1.10,2013-04-16 19:31:00,
2013-04-16 15:46:00,63.8,58.0,29.96,South,190,4.0,-999.0,82,-99.99,,,0.04,weatherlink.com 1.10,2013-04-16 19:46:00,
2013-04-16 16:01:00,64.1,59.0,29.96,WSW,245,10.0,-999.0,83,-99.99,,,0.04,weatherlink.com 1.10,2013-04-16 20:01:00,
2013-04-16 16:16:00,61.5,59.0,29.97,SW,227,13.0,-999.0,90,-99.99,,,0.06,weatherlink.com 1.10,2013-04-16 20:16:00,
2013-04-16 16:31:00,59.0,56.0,29.98,SW,217,5.0,-999.0,91,-99.99,,,0.10,weatherlink.com 1.10,2013-04-16 20:31:00,
2013-04-16 16:46:00,57.7,55.0,30.00,West,260,8.0,-999.0,92,-99.99,,,0.10,weatherlink.com 1.10,2013-04-16 20:46:00,
2013-04-16 17:01:00,51.6,49.0,30.02,WNW,290,7.0,-999.0,92,-99.99,,,0.12,weatherlink.com 1.10,2013-04-16 21:01:00,
2013-04-16 17:16:00,50.4,49.0,30.02,SW,233,6.0,-999.0,93,-99.99,,,0.13,weatherlink.com 1.10,2013-04-16 21:16:00,
2013-04-16 17:32:00,50.7,49.0,30.03,WSW,240,7.0,-999.0,94,-99.99,,,0.13,weatherlink.com 1.10,2013-04-16 21:32:00,
2013-04-16 17:47:00,51.0,49.0,30.04,SSW,205,4.0,-999.0,94,-99.99,,,0.13,weatherlink.com 1.10,2013-04-16 21:47:00,
2013-04-16 18:02:00,51.4,50.0,30.06,SW,236,10.0,-999.0,94,-99.99,,,0.13,weatherlink.com 1.10,2013-04-16 22:02:00,
2013-04-16 18:17:00,51.6,50.0,30.07,WSW,241,10.0,-999.0,94,-99.99,,,0.13,weatherlink.com 1.10,2013-04-16 22:17:00,
2013-04-16 18:32:00,51.7,50.0,30.08,SW,219,5.0,-999.0,94,-99.99,,,0.14,weatherlink.com 1.10,2013-04-16 22:32:00,
2013-04-16 18:47:00,51.8,50.0,30.08,SW,219,4.0,-999.0,94,-99.99,,,0.14,weatherlink.com 1.10,2013-04-16 22:47:00,
2013-04-16 19:02:00,52.1,51.0,30.09,SW,219,4.0,-999.0,94,-99.99,,,0.14,weatherlink.com 1.10,2013-04-16 23:02:00,
2013-04-16 19:17:00,52.2,51.0,30.10,SW,219,6.0,-999.0,94,-99.99,,,0.14,weatherlink.com 1.10,2013-04-16 23:17:00,
2013-04-16 19:32:00,52.2,51.0,30.11,SW,234,4.0,-999.0,94,-99.99,,,0.14,weatherlink.com 1.10,2013-04-16 23:32:00,
2013-04-16 19:47:00,52.3,50.0,30.11,SW,215,4.0,-999.0,91,-99.99,,,0.14,weatherlink.com 1.10,2013-04-16 23:47:00,
2013-04-16 20:02:00,52.2,49.0,30.12,SW,216,1.0,-999.0,89,-99.99,,,0.14,weatherlink.com 1.10,2013-04-17 00:02:00,
2013-04-16 20:17:00,52.0,49.0,30.13,SW,217,6.0,-999.0,88,-99.99,,,0.14,weatherlink.com 1.10,2013-04-17 00:17:00,
2013-04-16 20:32:00,51.9,48.0,30.14,SW,232,2.0,-999.0,87,-99.99,,,0.14,weatherlink.com 1.10,2013-04-17 00:32:00,
2013-04-16 20:47:00,51.5,48.0,30.15,SW,234,1.0,-999.0,87,-99.99,,,0.14,weatherlink.com 1.10,2013-04-17 00:47:00,
2013-04-16 21:02:00,50.8,44.0,30.17,SW,223,4.0,-999.0,78,-99.99,,,0.14,weatherlink.com 1.10,2013-04-17 01:02:00,
2013-04-16 21:17:00,49.6,41.0,30.17,West,275,1.0,-999.0,72,-99.99,,,0.14,weatherlink.com 1.10,2013-04-17 01:17:00,
2013-04-16 21:32:00,48.5,38.0,30.18,WSW,258,2.0,-999.0,67,-99.99,,,0.14,weatherlink.com 1.10,2013-04-17 01:32:00,
2013-04-16 21:47:00,47.9,37.0,30.19,WSW,238,4.0,-999.0,66,-99.99,,,0.14,weatherlink.com 1.10,2013-04-17 01:47:00,
2013-04-16 22:02:00,47.4,37.0,30.20,West,261,0.0,-999.0,67,-99.99,,,0.14,weatherlink.com 1.10,2013-04-17 02:02:00,
2013-04-16 22:17:00,47.0,36.0,30.21,SW,220,0.0,-999.0,65,-99.99,,,0.14,weatherlink.com 1.10,2013-04-17 02:17:00,
2013-04-16 22:32:00,46.8,35.0,30.22,SW,221,8.0,-999.0,64,-99.99,,,0.14,weatherlink.com 1.10,2013-04-17 02:32:00,
2013-04-16 22:47:00,46.6,35.0,30.23,WSW,243,2.0,-999.0,64,-99.99,,,0.14,weatherlink.com 1.10,2013-04-17 02:47:00,
2013-04-16 23:03:00,46.4,34.0,30.24,West,275,3.0,-999.0,63,-99.99,,,0.14,weatherlink.com 1.10,2013-04-17 03:03:00,
2013-04-16 23:18:00,46.0,34.0,30.24,NW,306,1.0,-999.0,63,-99.99,,,0.14,weatherlink.com 1.10,2013-04-17 03:18:00,
2013-04-16 23:33:00,45.7,34.0,30.24,WSW,239,0.0,-999.0,64,-99.99,,,0.14,weatherlink.com 1.10,2013-04-17 03:33:00,
2013-04-16 23:48:00,45.5,34.0,30.24,WNW,297,0.0,-999.0,65,-99.99,,,0.14,weatherlink.com 1.10,2013-04-17 03:48:00,